Location: Quedlinburg
(51.7921°N, 11.1414°E)
Time: 08:52:40
(UTC+02:00)

RS-44 - Pass Details

Date: 17 March 2026
Orbit: 1175 x 1510 km, 82.5° (Epoch: 17 April)

Event Time Altitude Azimuth Distance (km) Brightness Sun altitude
Rises 04:56:24 0° 342° (NNW) 4,416 ? -14.4°
Reaches altitude 10° 05:00:24 10° 323° (NW) 3,498 ? -13.8°
Maximum altitude 05:05:08 17° 288° (WNW) 3,062 ? -13.1°
Enters shadow 05:07:34 15° 269° (W) 3,220 ? -12.8°
